Theta_e
290 289 288 289 288 286 286 287 287 288 288 289 287 285 287 287 284 283 289 294 296 298 302 304 306 308 309 310 312 313 313 313 313 313 313 314 314 315 315 315 315 314 313 313 313 312 312 312 311 311 311 310 310 309 309 308 307 307 308 307 306 306 304 303 302 302 301 301 300 301 300 300 300 300 300 300 299 299 298 297 297 294 293 292 291 291 290
289 291 292 292 288 287 287 288 287 287 288 287 288 288 289 289 286 288 295 294 297 301 303 305 307 310 311 312 314 313 312 312 312 313 313 314 314 314 314 314 314 314 313 313 312 312 311 311 311 311 310 309 309 308 308 307 307 307 307 306 305 304 304 303 302 302 301 301 300 300 299 299 299 299 299 299 299 297 296 296 295 294 293 293 291 290 290
288 292 294 292 289 288 286 287 287 287 288 287 288 289 290 291 292 295 295 294 293 296 302 307 307 309 311 312 312 312 312 312 312 312 313 313 313 314 314 314 314 313 313 312 312 311 311 311 311 311 310 309 309 308 308 307 307 307 307 305 305 304 303 303 302 301 301 300 299 299 299 299 299 299 299 299 297 296 294 294 293 294 292 291 290 290 289
284 291 292 293 291 288 286 285 287 287 287 287 287 287 289 289 290 292 291 290 290 297 305 306 309 310 310 310 311 311 311 311 311 312 312 313 313 313 314 313 313 312 312 311 311 311 311 311 311 310 309 308 308 307 307 307 307 307 306 305 303 303 302 302 301 301 300 300 299 298 298 298 299 299 299 297 296 294 293 292 292 291 290 290 289 289 289
281 288 292 292 289 286 283 281 285 288 287 287 289 290 291 291 295 290 287 291 295 304 307 306 307 309 310 310 311 311 311 311 312 312 312 313 313 314 313 313 312 312 311 311 311 311 311 311 311 310 309 308 307 307 307 306 306 306 305 303 303 302 302 302 301 301 300 299 298 298 298 298 299 298 298 297 296 294 292 292 291 290 289 289 288 289 288
282 287 290 288 282 277 277 284 291 291 289 289 289 288 290 293 298 294 295 295 296 306 306 307 307 308 309 311 312 314 313 311 311 312 313 313 313 314 314 313 312 312 312 311 312 312 312 312 311 309 309 308 308 308 307 306 305 304 303 302 302 302 302 301 301 300 299 299 298 298 298 298 298 298 298 297 296 295 294 292 290 290 289 289 289 288 288
282 285 285 281 274 275 286 291 298 298 294 292 290 291 292 295 294 293 294 297 305 307 309 309 310 311 313 313 313 313 314 314 313 312 312 312 312 312 313 312 312 311 311 311 311 311 311 311 309 308 307 307 307 306 306 305 304 303 302 302 301 301 301 300 300 299 299 299 298 297 297 298 297 297 297 296 296 296 294 292 291 290 290 289 289 290 288
283 284 279 276 276 284 292 294 296 297 296 293 294 292 293 294 293 295 295 303 306 308 308 310 312 312 313 313 313 314 314 315 314 312 312 312 312 312 313 312 312 311 311 311 311 311 311 310 308 307 306 306 305 305 306 304 303 302 302 301 301 300 300 299 299 299 299 298 297 297 297 297 297 296 295 296 295 295 295 293 292 292 290 291 291 289 288
281 278 277 279 285 288 290 292 295 293 293 292 289 284 290 294 295 293 294 300 306 307 308 309 309 309 311 309 307 310 314 314 315 314 314 313 313 313 313 313 312 312 312 311 312 311 310 309 307 307 306 305 305 305 304 302 302 301 301 300 299 300 299 299 299 299 299 298 297 296 297 296 295 295 295 294 294 295 294 293 293 292 292 292 292 290 289
281 279 280 279 279 278 280 288 295 298 297 294 291 288 287 293 294 293 291 295 303 304 304 305 307 310 307 303 305 310 313 314 314 315 315 314 314 313 312 312 311 311 311 312 312 311 308 307 307 306 306 305 305 304 302 301 301 300 300 299 299 299 298 298 299 299 299 298 297 296 296 296 295 294 294 294 294 295 293 292 292 292 293 292 292 292 290
282 280 277 277 277 277 284 290 295 297 298 297 293 287 284 288 293 299 294 294 292 300 303 304 309 307 302 302 307 311 312 313 314 313 313 313 313 312 312 311 310 310 311 311 310 309 308 306 306 306 305 305 304 303 301 300 300 299 299 298 298 298 298 298 298 298 299 298 297 296 295 295 295 294 294 294 294 293 292 292 292 292 294 293 292 292 291
279 278 279 279 277 282 293 294 295 297 298 295 290 281 278 288 295 299 299 298 294 293 299 307 308 306 299 303 307 312 313 314 314 313 312 311 311 311 311 311 311 311 311 310 308 307 307 306 306 305 305 304 303 302 300 300 299 298 298 298 299 299 298 298 298 298 298 298 296 296 295 294 294 294 295 294 293 292 291 291 291 291 293 293 293 293 292
280 282 278 277 280 287 292 296 299 297 297 291 282 279 284 291 295 300 300 300 296 296 300 305 305 307 309 310 313 313 313 312 311 312 313 312 312 310 310 310 307 310 310 309 308 307 307 307 306 305 304 303 302 301 300 299 298 298 299 299 299 298 298 298 297 297 297 297 296 295 295 295 295 295 295 294 293 292 292 292 291 291 292 292 293 292 292
280 276 280 279 280 287 297 298 300 299 295 285 280 287 292 296 300 303 302 303 299 297 303 305 307 309 303 307 310 311 312 312 312 312 311 310 310 310 310 308 308 309 309 308 308 308 307 307 306 305 304 302 301 300 299 298 298 299 299 298 298 297 297 297 297 297 296 296 296 296 295 295 294 294 294 294 294 293 293 292 292 292 292 292 291 291 290
279 278 277 280 280 290 299 300 296 296 288 285 288 296 302 301 302 303 303 304 303 297 299 303 306 304 304 309 310 311 311 311 310 310 310 309 308 308 307 307 308 308 307 307 308 307 306 307 306 305 303 301 301 300 299 298 299 298 298 297 297 297 296 296 297 296 296 296 296 297 296 295 294 293 293 294 294 294 293 293 293 293 293 293 292 291 290
280 279 278 279 283 288 298 296 288 295 297 296 297 301 299 303 302 303 303 304 303 302 303 303 303 305 306 307 310 310 310 310 310 310 310 309 308 308 308 308 308 308 308 308 307 306 306 306 305 304 303 301 300 299 298 298 298 298 297 297 297 297 296 296 296 296 296 296 296 296 295 294 294 294 294 294 294 294 294 294 293 293 293 293 292 291 291
284 283 281 288 290 296 303 302 300 301 304 305 304 303 303 302 304 304 304 305 304 304 305 305 306 305 308 309 310 309 309 309 309 308 308 308 307 307 307 307 307 307 307 306 307 305 305 305 304 304 303 301 299 298 298 298 297 297 297 297 297 296 295 295 296 296 296 296 296 295 295 295 295 295 295 295 294 294 294 294 294 293 293 293 292 291 291
294 294 296 300 300 301 302 302 303 304 304 306 306 306 305 304 305 305 306 306 306 306 305 306 304 306 307 308 308 309 309 309 308 308 308 307 308 307 307 306 306 307 307 306 306 305 304 305 304 304 303 301 299 298 298 298 298 298 297 296 296 296 295 296 296 297 295 295 295 296 296 296 296 296 296 295 295 294 294 294 294 294 293 292 292 291 291
289 288 290 297 301 302 301 301 303 303 304 305 305 305 304 305 305 306 307 306 306 306 306 306 305 304 306 307 307 307 308 307 307 307 307 307 307 307 306 306 305 306 305 304 304 304 303 304 304 303 302 301 300 299 298 298 298 298 297 296 296 296 296 296 296 296 295 296 296 297 296 296 297 297 296 295 294 294 294 294 294 293 293 292 291 290 290
284 286 293 298 300 303 304 300 300 302 303 303 303 304 305 304 305 305 307 307 307 306 305 306 307 306 306 306 306 307 307 307 307 306 306 306 306 306 306 305 306 305 304 303 303 303 303 303 303 303 302 300 300 299 299 298 298 297 297 296 295 295 296 296 296 296 296 293 295 296 296 296 296 296 296 296 294 294 294 294 293 292 291 290 290 290 290
294 295 297 298 298 301 303 303 302 302 302 303 303 303 303 304 305 305 307 306 307 306 306 306 307 306 305 307 307 307 306 306 306 306 306 306 306 305 305 305 304 304 304 303 303 303 303 303 302 301 300 300 299 299 298 298 298 297 296 295 295 295 296 296 295 296 296 296 296 296 296 296 296 296 296 295 295 294 293 293 294 293 291 291 290 289 290
288 289 294 296 290 291 299 301 303 304 304 303 302 301 303 304 305 304 306 306 305 307 307 307 308 306 305 306 307 307 307 306 306 305 305 306 305 305 305 305 305 304 304 303 302 301 301 301 301 300 299 299 299 299 298 298 298 297 296 295 295 295 295 295 295 295 296 296 296 296 296 295 294 292 289 292 293 293 291 292 292 291 292 291 292 290 289
286 291 294 298 294 296 299 301 303 303 303 302 302 302 303 304 304 304 304 305 305 306 307 306 308 307 306 306 307 307 306 306 306 306 306 305 305 304 305 304 303 303 303 301 300 299 299 299 299 299 299 298 298 298 298 298 298 297 296 295 295 295 295 295 295 296 296 296 296 296 295 294 293 292 291 289 288 288 290 291 291 290 290 291 291 290 291
295 296 298 299 296 298 301 302 303 304 304 304 303 303 303 303 304 303 303 304 305 305 305 306 307 308 307 307 308 306 306 306 306 306 306 306 305 305 305 304 303 303 301 300 299 298 297 297 298 298 298 298 298 298 298 298 298 297 297 296 295 295 296 295 294 294 296 296 296 296 295 294 292 291 289 289 289 289 288 288 289 290 290 290 290 290 291
298 301 301 300 300 302 302 302 303 303 305 305 304 303 303 302 303 303 304 304 304 305 305 305 305 306 307 306 308 307 306 306 306 305 304 304 304 304 304 303 303 302 301 301 299 298 297 297 297 297 297 297 298 298 298 298 298 297 297 296 295 295 296 295 295 295 295 295 295 296 294 292 291 290 289 288 287 286 288 289 288 288 288 288 289 289 289
301 301 301 302 302 300 301 302 303 302 303 303 302 303 303 305 303 303 304 303 304 304 304 304 304 304 306 306 307 307 307 306 304 303 305 304 303 303 304 303 303 303 302 301 299 297 296 296 297 297 297 297 297 297 298 298 298 297 297 297 296 296 296 296 296 295 295 295 295 295 295 293 291 290 289 289 288 287 286 286 287 288 289 289 289 288 288
302 302 302 301 301 301 300 300 299 302 301 302 303 303 303 302 303 302 303 303 303 303 303 304 305 303 302 306 306 307 307 304 303 305 305 304 303 304 305 304 303 302 301 300 298 296 295 296 296 297 296 296 297 297 297 298 297 297 297 297 297 293 291 293 296 296 296 296 295 295 294 293 291 290 290 289 288 287 286 285 285 285 285 287 288 289 288
303 302 299 297 296 298 300 301 301 301 301 301 301 302 303 301 301 301 301 302 303 302 302 302 302 303 302 301 305 303 303 303 304 304 303 303 304 305 305 304 303 301 300 299 298 296 296 297 297 297 296 296 297 298 298 298 297 296 296 297 297 295 295 295 296 296 295 295 295 295 294 293 292 291 291 290 288 287 286 286 286 285 284 285 285 288 289
302 302 301 300 301 300 300 300 300 299 299 299 299 300 301 302 300 300 299 300 301 300 301 301 301 300 303 302 303 304 304 304 304 303 303 303 303 303 302 301 301 300 299 297 297 296 297 297 297 296 296 297 298 298 298 298 297 297 296 296 296 295 296 296 296 295 294 294 294 295 292 291 291 291 290 290 289 288 286 286 286 285 286 284 286 288 288
301 301 301 300 299 299 300 299 299 299 300 299 300 298 299 301 299 299 299 300 300 301 300 299 300 299 298 300 301 304 304 304 304 304 302 302 302 300 299 299 299 298 297 296 296 296 297 296 296 296 296 298 298 298 298 298 298 298 297 297 297 296 296 296 296 295 294 294 293 290 291 292 292 291 289 289 289 288 287 286 286 285 285 285 287 286 286
300 300 300 299 299 298 299 298 298 299 299 297 296 296 296 298 299 297 298 299 300 300 299 299 299 298 297 297 297 298 299 300 302 301 301 301 300 300 299 300 298 296 296 296 297 297 297 297 297 296 297 298 299 299 299 298 298 298 298 297 297 292 291 291 292 296 295 293 292 292 292 292 292 290 288 288 288 287 287 286 285 285 285 285 285 285 287
297 297 298 297 296 296 297 297 297 297 296 297 297 297 297 298 298 298 298 298 299 300 298 298 298 297 297 298 299 300 299 298 297 298 298 299 299 300 300 301 300 296 298 297 297 297 297 297 296 297 299 299 299 299 299 299 299 298 297 294 295 294 291 290 293 293 293 292 292 292 290 292 292 291 289 288 288 287 287 286 286 285 285 285 286 287 288
297 295 295 296 296 295 296 295 297 296 296 296 297 297 298 297 297 297 299 300 298 298 298 297 297 296 297 297 298 298 297 296 296 296 297 296 297 298 298 298 299 299 299 298 298 298 298 297 297 298 299 299 300 300 300 299 299 298 297 297 296 295 291 290 292 294 293 292 292 293 292 291 291 290 290 289 289 288 288 287 287 286 287 287 287 289 289
297 295 295 294 295 293 295 295 295 296 296 296 296 297 297 297 297 298 299 298 298 298 298 298 297 297 297 297 296 296 296 296 295 294 294 295 295 295 295 296 297 298 297 297 297 298 298 299 299 299 299 300 300 300 300 300 299 299 298 297 296 295 294 293 292 293 293 291 292 290 291 291 290 291 289 288 289 289 288 288 287 287 287 287 288 289 289
297 296 296 296 295 294 296 297 296 295 296 297 298 297 296 296 297 299 298 299 298 298 297 298 297 297 297 296 296 295 295 294 292 293 291 291 293 294 296 296 296 296 297 297 297 298 299 299 300 299 300 300 300 300 300 300 299 299 298 298 296 295 295 294 294 293 292 292 291 292 290 291 290 289 290 290 289 288 288 288 288 287 287 287 287 287 287
297 297 295 296 295 296 296 297 297 297 296 295 295 295 295 295 297 298 298 298 299 300 299 298 297 297 295 295 294 294 292 290 289 290 292 292 293 294 296 296 296 296 296 296 297 298 299 299 293 293 299 299 300 300 300 300 299 298 298 298 296 294 294 294 294 293 293 292 291 291 291 290 290 289 289 289 289 288 288 287 287 286 287 287 286 286 287
297 297 296 296 295 294 295 295 295 295 295 295 295 296 297 298 299 297 299 299 299 299 298 298 297 296 294 292 292 291 292 292 291 291 290 291 294 295 296 295 296 295 295 295 296 299 299 298 291 291 296 298 299 300 298 292 299 298 297 297 296 294 293 293 294 293 293 291 291 290 289 289 289 290 289 290 289 287 288 287 286 287 287 286 286 286 287
296 297 296 296 295 295 295 296 296 296 296 296 296 296 298 299 299 300 300 299 299 298 298 297 297 295 293 292 291 290 289 289 291 291 292 294 296 296 296 296 295 295 295 295 297 298 298 294 289 294 299 298 299 299 296 290 292 298 297 297 296 295 293 293 293 292 292 291 288 289 289 289 288 288 287 287 288 288 287 287 286 286 286 286 286 286 286
296 296 296 296 295 295 295 296 297 297 298 297 296 296 297 298 298 299 299 298 298 298 298 297 296 295 294 294 292 290 290 287 289 293 294 296 296 296 295 296 297 297 298 298 299 298 295 292 296 298 298 298 299 299 294 289 290 298 297 296 296 295 293 293 293 292 292 292 289 288 289 289 289 289 288 288 288 287 286 288 288 287 288 286 286 286 286
295 296 295 295 296 294 295 295 296 296 296 297 298 298 297 298 299 299 298 298 297 298 298 297 296 295 293 293 293 292 292 292 293 294 295 296 295 294 294 296 297 298 297 293 298 298 293 290 295 299 298 299 299 299 296 291 290 295 296 295 295 294 293 293 293 292 292 290 290 288 288 288 288 288 288 288 288 287 286 287 287 286 286 286 286 285 286
295 295 295 295 295 295 295 295 295 295 297 297 297 298 298 299 299 299 298 298 298 299 299 297 296 294 294 294 294 294 293 293 294 295 296 295 293 291 291 292 294 297 297 297 298 295 291 293 297 298 298 299 299 295 297 291 292 295 295 294 294 293 292 292 292 292 291 290 290 289 289 289 287 287 286 286 287 287 288 288 288 287 287 287 287 285 286
297 295 294 295 295 295 294 295 295 296 296 296 296 297 298 298 299 299 298 297 298 298 297 297 294 296 295 294 293 293 293 293 294 295 296 295 293 291 291 292 295 297 293 293 293 292 293 296 296 294 299 299 298 292 292 294 295 295 294 292 292 292 293 291 291 291 290 290 290 290 290 289 288 288 287 287 286 286 287 287 286 286 287 287 287 287 287
297 295 295 294 294 295 296 295 296 296 296 296 297 298 299 298 298 298 298 297 298 297 297 295 293 292 293 293 293 293 293 293 294 294 293 294 296 296 296 295 296 297 290 294 296 296 296 297 296 296 294 296 296 291 289 295 296 295 294 292 291 292 292 292 292 291 291 290 289 289 290 289 288 288 287 287 287 287 287 287 287 287 287 287 288 288 287
297 296 295 295 295 295 294 295 295 296 297 296 297 298 298 299 299 298 298 298 298 297 296 295 295 294 294 294 293 292 292 293 294 293 294 293 294 295 296 294 295 293 290 293 293 295 296 296 297 295 290 290 291 290 292 296 296 295 294 293 292 292 291 291 291 291 291 290 290 290 290 289 288 288 288 288 287 287 287 287 288 288 288 288 288 288 288
296 296 296 296 296 295 294 295 297 297 297 297 296 296 298 298 298 298 299 299 298 296 295 296 296 295 295 294 294 294 294 295 295 295 293 290 290 293 296 293 294 292 291 291 293 294 296 297 295 291 290 289 289 289 294 296 296 295 295 294 294 292 291 290 290 290 291 291 291 291 290 290 290 289 289 289 288 288 288 288 288 289 288 288 288 288 288
297 297 296 293 295 295 296 295 295 297 297 297 296 296 296 299 299 299 299 298 298 298 298 297 297 296 297 296 294 294 294 295 296 297 297 296 294 295 298 293 293 290 290 290 293 293 295 292 290 289 289 289 288 290 294 294 294 294 295 295 294 292 291 290 290 289 290 290 290 290 290 290 290 290 290 289 289 289 289 288 288 288 288 288 289 289 289
297 297 296 296 297 296 295 295 297 297 296 296 295 295 295 296 298 299 299 300 300 299 298 298 298 297 297 297 296 294 293 293 294 295 296 296 296 295 293 291 290 289 289 292 292 293 293 293 290 289 289 289 288 292 292 293 293 293 293 293 292 292 291 291 290 291 290 289 289 289 289 290 290 290 289 289 289 289 288 288 288 289 289 288 288 288 288
297 296 297 296 297 296 295 296 296 296 296 296 296 297 296 296 296 297 298 299 300 300 299 299 298 298 297 297 297 297 297 295 292 294 296 296 296 296 294 294 293 289 289 290 290 290 290 290 290 289 289 288 290 292 291 291 290 290 290 291 291 291 291 291 291 290 291 290 289 288 287 287 288 289 289 289 289 288 288 288 288 287 287 287 288 288 288
298 297 296 295 295 295 295 295 294 294 296 295 295 296 296 296 295 295 296 298 300 300 300 299 299 299 299 297 298 298 297 298 296 295 297 297 297 296 296 293 290 289 290 292 294 293 290 289 289 289 289 289 292 292 292 291 291 290 290 291 292 292 292 292 292 292 291 291 290 289 288 289 289 289 288 288 287 287 287 286 287 287 287 287 287 286 287
297 297 297 296 296 295 295 294 293 292 293 294 295 296 295 295 295 295 293 295 296 296 298 298 299 300 299 298 298 298 298 297 297 296 296 297 298 298 296 294 293 290 290 293 294 294 290 289 289 289 289 291 292 293 294 294 294 292 292 291 291 291 291 291 289 290 291 291 291 289 289 288 289 289 289 288 288 288 288 288 287 287 287 287 286 287 286
297 297 297 296 296 297 296 295 294 294 293 294 296 295 296 294 295 294 295 295 295 294 295 295 295 298 299 299 299 299 298 298 297 295 296 297 298 295 295 295 292 290 291 291 293 294 293 292 292 291 291 293 294 294 294 294 294 294 292 292 292 291 291 290 289 291 292 291 292 292 291 291 290 290 289 289 289 289 288 288 288 289 289 289 289 289 288
298 297 298 297 298 297 297 296 296 295 295 294 295 295 296 296 294 294 293 291 294 294 294 294 294 294 296 298 298 299 299 299 297 297 295 295 297 297 296 293 294 290 291 292 294 295 294 293 290 289 290 293 294 295 291 291 294 294 294 292 292 293 292 292 291 291 292 292 292 292 292 292 292 291 290 290 289 289 289 289 289 289 288 288 288 288 288
Wind_Speed
3 3 3 1 3 4 5 5 5 3 2 3 5 4 3 7 5 8 5 7 10 10 14 17 18 17 16 16 17 18 16 13 11 12 15 16 17 16 17 17 16 16 16 15 15 15 14 14 13 12 11 10 9 9 9 8 8 9 9 10 9 9 9 8 7 7 6 5 5 5 6 6 7 8 8 8 7 7 8 8 7 7 6 5 5 5 4
5 4 2 2 3 3 4 4 5 6 5 6 6 4 5 7 3 8 9 7 12 13 13 15 18 18 19 14 9 10 13 16 16 17 17 17 17 18 18 17 17 16 16 16 16 15 15 16 15 13 12 11 12 12 11 10 10 10 10 10 10 9 9 9 8 7 7 5 6 6 7 7 7 8 8 7 8 8 8 8 7 6 5 4 4 4 4
3 5 4 0 4 5 4 4 5 5 4 3 4 4 3 5 2 2 5 8 3 4 6 13 7 6 7 9 15 17 16 16 18 18 18 17 17 18 17 16 16 16 16 16 16 16 16 17 16 14 12 12 12 12 11 11 11 11 11 10 10 10 9 9 8 7 7 7 7 7 7 7 7 8 8 8 9 9 8 7 7 6 5 5 4 3 4
2 2 3 4 1 3 4 5 7 7 3 1 3 2 5 6 4 4 3 5 4 1 7 5 10 12 14 15 14 13 13 17 18 19 19 18 18 18 18 17 16 16 17 17 17 17 16 16 17 14 13 12 12 12 12 11 11 11 11 11 11 10 10 9 8 8 7 7 7 7 7 7 7 8 9 10 9 8 8 9 7 5 5 4 4 3 3
1 3 2 3 2 3 2 6 8 7 2 1 2 1 3 5 10 8 5 9 6 8 11 11 8 14 15 14 15 15 13 16 19 21 20 19 19 19 18 18 18 18 18 17 17 17 16 15 15 14 15 14 14 13 13 12 11 11 11 11 11 11 11 10 10 9 9 8 8 7 7 7 7 8 9 9 9 8 9 8 7 7 5 4 4 3 4
2 3 2 3 6 4 5 4 3 4 5 6 3 2 5 4 7 8 8 7 4 7 11 16 13 12 15 17 16 19 20 16 15 15 17 19 18 17 16 17 18 17 15 14 14 15 15 14 14 14 14 15 14 13 12 11 12 11 11 11 11 11 11 11 10 9 9 9 8 7 7 7 7 8 9 9 7 7 8 8 8 7 5 5 4 4 4
1 3 3 4 4 5 4 5 4 4 6 7 5 3 3 2 1 8 8 6 10 12 15 17 18 19 17 14 15 12 14 19 19 19 16 15 15 17 17 16 15 16 16 15 14 13 13 14 12 12 11 10 10 11 12 12 11 12 11 11 11 11 11 10 9 9 9 9 9 7 7 7 7 8 8 7 8 7 8 8 8 8 6 5 4 4 3
1 2 3 2 3 4 4 8 4 1 4 1 8 2 3 1 2 7 11 14 13 10 10 12 16 17 14 11 12 17 16 17 18 17 17 17 17 18 18 20 18 17 17 18 17 14 11 12 12 14 13 12 13 13 12 12 11 11 11 11 11 10 10 10 10 10 10 9 8 8 8 8 8 7 7 8 8 7 7 6 6 5 4 4 4 4 3
1 2 2 3 3 4 3 1 1 1 1 1 9 5 1 1 1 1 10 12 12 11 11 9 5 5 8 7 5 4 11 15 16 21 19 19 20 20 17 17 18 16 15 15 15 14 13 13 13 13 12 13 13 13 12 11 12 11 11 12 12 11 11 10 11 10 10 10 9 9 9 9 8 7 7 7 7 6 8 7 7 6 6 4 5 5 3
2 3 1 2 1 1 4 6 4 1 2 3 4 8 1 1 5 0 5 8 12 11 6 6 8 11 11 6 8 9 9 9 11 10 14 16 15 15 14 12 11 12 13 13 14 14 15 15 14 13 14 14 14 13 12 12 13 12 13 12 11 11 11 11 11 10 10 10 10 9 9 10 9 7 6 5 5 6 9 8 7 7 5 5 4 5 5
2 2 2 1 2 3 5 4 3 5 2 4 3 6 1 3 1 4 2 7 6 8 11 8 13 11 11 11 12 12 12 12 11 13 11 12 13 14 16 18 17 15 15 16 14 14 15 16 14 14 15 16 14 13 13 13 12 13 12 12 12 12 11 10 11 10 10 10 10 10 10 9 8 8 7 7 6 6 7 7 7 6 6 6 5 4 4
1 2 1 1 2 0 0 3 4 5 2 1 5 4 4 3 4 2 0 1 6 7 5 13 14 14 11 11 13 10 17 18 16 16 16 14 13 13 13 13 16 17 15 14 14 16 17 16 15 15 15 14 14 14 13 12 13 13 13 12 11 11 11 11 11 10 10 11 10 10 10 8 7 8 7 7 7 7 6 6 7 6 6 6 6 6 4
1 2 1 1 3 4 3 4 6 4 1 6 5 6 4 3 4 3 1 1 2 8 10 8 10 10 14 17 14 12 11 10 8 8 12 16 17 17 16 15 14 13 14 16 15 15 14 14 14 15 14 14 13 12 12 12 14 12 11 10 11 11 11 11 11 11 10 11 11 9 9 9 9 7 7 8 7 7 6 6 6 5 6 5 6 5 5
3 3 1 4 4 6 2 2 3 2 3 2 4 4 2 2 3 1 0 2 1 9 13 11 9 12 3 3 6 13 17 19 15 13 12 10 8 9 12 16 16 13 13 12 13 13 13 15 15 14 14 14 13 13 13 14 12 10 10 11 10 11 11 11 11 10 10 9 9 9 8 8 8 8 6 7 7 7 7 6 7 7 5 5 5 4 3
2 2 1 1 1 1 2 4 1 4 3 5 3 1 1 3 2 1 2 0 3 7 7 11 10 6 5 10 13 14 14 14 15 16 16 17 17 16 14 13 13 15 13 14 14 13 13 14 14 14 15 15 14 13 14 13 10 11 11 11 11 11 11 11 10 10 9 10 9 7 8 8 9 8 7 7 6 7 8 7 7 7 6 5 4 4 3
4 3 2 2 3 5 3 1 2 2 2 3 5 4 2 2 1 2 2 2 2 2 6 10 6 8 8 6 12 12 14 14 13 13 13 13 13 13 14 17 16 15 14 13 13 12 13 13 13 13 15 14 14 14 14 10 10 11 11 12 12 12 11 11 10 10 10 10 9 7 8 8 8 8 7 7 7 7 8 8 7 7 6 6 5 5 5
2 2 3 3 3 2 3 4 2 1 2 2 3 6 4 4 4 1 2 2 2 1 1 5 9 8 11 16 16 17 15 15 17 17 18 18 18 17 17 15 15 14 15 15 14 13 13 15 13 13 13 15 15 15 11 11 13 13 13 13 13 12 12 11 11 10 9 9 8 8 8 9 9 8 7 7 8 7 8 8 8 8 7 6 6 6 6
0 2 2 0 2 2 4 4 1 4 5 4 5 6 6 4 2 1 1 1 2 4 2 6 1 4 8 11 10 12 14 14 11 11 12 11 12 13 13 13 14 13 13 14 15 15 14 15 14 13 13 14 16 13 12 12 13 14 14 13 13 13 11 11 11 11 10 9 8 8 8 7 7 7 8 8 8 7 7 8 7 7 6 6 6 6 6
6 2 3 3 2 2 5 4 4 4 4 4 3 5 4 2 2 3 1 1 2 3 5 4 7 5 5 8 9 10 11 11 12 13 15 15 16 17 17 15 15 13 14 14 15 15 15 14 13 13 13 12 12 11 13 13 13 13 13 13 12 11 12 11 11 11 11 9 9 8 8 6 6 6 7 7 7 7 6 6 6 6 6 5 6 6 7
2 2 2 2 1 1 0 1 3 4 4 5 4 2 2 2 2 3 2 3 4 3 5 6 10 8 8 12 10 10 10 13 15 14 13 14 12 11 14 15 15 14 15 15 15 15 15 13 12 12 12 12 12 13 12 13 13 13 13 13 13 12 13 11 10 10 10 12 12 8 8 8 7 6 6 6 6 7 7 6 6 6 5 5 6 7 7
1 2 1 1 1 7 5 4 1 1 3 4 4 5 5 5 5 4 3 1 4 4 6 6 9 9 6 10 15 14 11 10 11 12 13 14 15 14 14 13 15 15 15 15 15 15 14 12 13 12 12 11 13 14 13 13 14 14 13 13 12 12 11 10 10 9 9 9 9 8 8 7 6 6 7 7 6 5 4 5 7 7 6 7 7 7 8
1 3 3 1 4 1 1 3 1 1 0 4 4 4 4 4 4 4 4 4 3 4 6 8 9 11 8 7 11 13 12 13 12 11 12 12 13 13 13 13 14 13 13 14 14 14 12 12 12 12 12 12 13 13 13 13 14 14 13 12 12 11 10 10 10 9 8 8 8 8 8 7 6 2 7 3 2 5 5 6 9 10 12 7 8 8 7
5 6 6 2 3 4 2 1 2 0 0 4 5 4 2 1 2 2 4 3 4 3 1 3 10 9 11 10 10 11 9 10 12 14 15 14 12 13 13 13 12 13 12 12 12 12 11 11 12 12 12 12 13 13 14 13 14 15 14 12 11 10 10 10 11 10 9 8 8 7 7 7 5 5 3 3 8 8 4 7 10 9 7 11 13 12 11
1 3 3 5 3 4 2 1 2 3 2 7 5 3 2 1 1 3 3 1 4 1 2 0 3 10 9 11 12 12 9 11 12 12 13 15 16 16 14 15 15 15 13 13 14 14 11 11 11 12 12 12 13 14 14 14 14 14 14 13 12 11 10 9 10 10 9 9 7 7 6 6 6 6 6 5 2 5 6 5 5 7 9 11 11 11 12
3 2 4 4 5 5 2 3 3 2 2 4 5 4 4 4 4 1 4 2 0 4 4 4 2 4 11 10 11 13 13 13 14 16 15 14 15 15 14 14 15 15 15 14 13 13 12 12 11 12 12 12 12 13 13 14 14 15 14 13 13 11 10 10 10 10 9 9 7 7 7 7 7 7 8 7 7 3 1 5 3 5 5 4 4 6 6
5 4 4 3 3 2 0 3 5 4 4 4 3 1 3 4 4 4 3 1 2 1 4 5 5 3 8 11 10 11 13 14 13 14 12 12 12 12 13 15 15 13 13 13 13 13 13 14 14 13 13 12 13 13 13 13 14 14 13 13 13 11 10 11 11 9 9 8 8 7 6 7 7 7 7 8 8 7 6 2 0 1 1 3 5 4 3
2 5 6 5 3 2 1 4 2 1 2 4 4 1 1 2 4 1 1 4 5 4 1 1 5 4 4 8 9 11 13 9 11 12 13 14 16 16 15 13 13 14 14 13 13 13 15 14 13 13 13 12 12 12 12 13 13 12 12 12 10 11 15 13 10 10 10 9 8 7 7 7 7 7 7 7 8 8 8 8 7 7 6 5 5 8 7
3 2 3 3 3 3 1 1 3 2 4 4 3 2 2 3 3 5 5 4 6 5 4 4 3 6 6 4 9 6 8 13 14 11 11 14 13 10 11 12 12 12 13 13 12 12 13 13 13 13 12 11 12 13 13 13 13 12 11 11 10 9 10 12 10 9 8 8 7 7 8 7 7 7 6 6 7 7 7 7 7 7 4 6 4 2 4
4 4 3 4 5 3 2 2 3 4 3 3 3 3 2 2 3 4 4 3 1 3 5 4 5 3 6 7 8 11 12 12 12 13 12 9 8 8 8 9 10 11 11 11 11 11 12 12 12 12 12 11 13 14 14 14 13 12 11 10 9 8 9 9 8 8 7 7 6 7 7 8 7 7 6 6 7 6 6 6 6 6 6 5 1 3 2
5 5 6 5 3 4 5 4 3 2 1 1 2 3 3 1 2 3 3 2 1 6 2 3 5 4 2 4 6 11 14 14 14 10 9 9 9 9 9 9 9 7 7 8 10 11 13 13 13 14 14 13 14 13 14 14 13 13 11 11 11 10 10 10 8 8 7 7 7 8 8 8 7 7 7 7 7 7 7 7 7 6 6 4 5 5 6
2 4 6 4 5 3 5 4 3 2 1 1 2 2 4 3 1 2 2 1 1 5 1 4 5 5 5 4 3 4 3 3 8 9 10 10 10 11 12 15 15 12 13 13 14 13 13 12 12 12 12 13 14 14 14 13 12 12 10 9 8 13 15 15 12 10 8 8 8 7 7 8 8 8 8 7 6 6 6 6 6 6 6 6 6 6 7
5 5 5 2 3 2 2 2 3 3 3 1 1 2 2 1 1 1 2 4 3 5 5 5 5 5 4 4 5 7 8 7 4 4 5 8 10 11 12 13 12 11 11 14 14 14 13 13 12 10 11 13 14 15 14 13 12 11 10 9 8 7 10 13 9 9 8 8 8 8 8 8 7 8 7 7 7 8 7 6 7 7 7 6 7 7 8
7 3 1 1 0 1 3 2 6 5 4 3 1 1 1 1 1 1 4 5 3 2 5 5 4 4 4 5 7 7 7 7 7 6 6 6 5 6 6 5 7 12 15 16 17 15 16 15 13 11 13 14 14 14 14 14 13 11 9 9 8 8 8 9 10 8 7 7 7 8 7 8 7 8 8 9 8 7 7 8 7 8 7 7 8 8 8
8 7 7 6 6 5 6 6 4 4 1 1 3 1 1 1 2 4 4 4 4 4 5 6 6 6 6 7 7 7 8 9 7 6 5 6 6 5 5 7 8 8 6 4 4 7 7 10 12 13 13 14 14 13 13 13 12 11 9 8 8 8 8 8 9 8 8 7 7 7 7 8 7 8 7 8 8 7 8 8 8 8 8 8 8 8 9
5 4 3 3 3 4 5 7 5 4 5 3 0 1 1 1 4 5 5 5 5 4 4 5 5 5 6 7 7 6 5 5 5 6 5 4 4 5 7 11 10 8 7 4 4 4 8 11 12 13 13 13 14 13 13 13 12 10 9 8 8 7 8 8 8 8 8 8 7 6 6 6 7 6 7 8 8 8 8 8 8 8 8 8 8 7 7
5 5 4 4 4 4 4 5 5 6 5 5 3 0 3 4 5 6 6 4 5 6 6 7 6 6 6 7 7 6 7 6 5 4 4 4 4 5 7 9 10 11 10 8 4 6 8 9 12 15 13 12 12 11 12 12 10 10 9 8 7 6 7 8 8 8 8 7 7 7 7 8 8 7 7 7 7 7 8 8 8 8 8 9 8 7 7
5 5 4 5 4 4 4 4 5 4 4 3 4 4 5 5 6 4 6 6 5 5 6 6 6 6 5 3 3 3 4 7 7 6 5 4 4 5 7 7 7 10 11 10 8 9 10 10 12 15 12 10 11 11 11 14 9 8 8 7 6 7 7 6 7 7 7 7 8 8 8 7 6 7 7 7 7 7 7 7 7 7 7 7 7 6 5
4 5 5 5 5 5 4 3 4 5 5 5 3 3 6 6 6 8 7 7 6 6 5 5 6 5 5 4 4 5 4 4 5 6 6 6 6 7 6 8 8 8 10 11 9 9 8 11 15 12 10 10 10 10 11 13 11 9 7 8 7 7 7 7 7 6 6 6 7 7 7 7 7 7 7 6 7 7 7 7 7 7 7 7 7 6 7
5 4 4 3 4 5 5 5 5 4 7 7 5 4 2 5 5 6 6 6 6 7 7 6 6 6 6 6 5 4 4 4 5 6 6 6 5 9 10 9 9 8 5 6 10 9 9 12 11 10 10 10 10 10 11 13 12 8 7 6 6 7 7 6 7 7 8 7 7 6 6 7 7 7 7 7 7 6 7 7 7 7 7 7 6 7 7
4 5 3 3 6 4 5 5 5 5 4 5 8 6 4 5 5 5 5 5 4 7 9 8 8 7 5 5 6 6 5 5 5 6 7 6 4 3 3 2 2 3 6 10 8 7 11 15 12 9 8 9 9 8 8 11 11 7 6 6 6 7 7 8 8 8 8 7 7 7 7 7 7 7 7 7 7 7 7 7 7 7 7 7 6 7 7
4 4 2 3 5 5 5 5 5 4 5 5 5 5 4 6 6 6 5 6 5 6 9 8 7 6 7 8 8 7 6 5 5 6 6 6 6 5 7 6 3 4 6 8 7 8 13 12 10 9 7 8 7 7 7 10 9 7 6 6 7 7 7 7 7 8 8 8 8 7 8 7 7 7 7 7 7 7 7 7 7 7 7 7 7 7 7
1 3 4 4 5 4 4 4 4 6 4 4 5 5 6 6 7 7 6 5 5 5 5 5 9 9 6 4 4 4 5 5 4 4 6 9 9 7 7 7 5 6 8 10 9 9 10 10 8 6 7 7 8 10 10 8 8 8 7 7 7 8 8 8 8 8 7 8 8 7 7 7 7 7 7 7 7 7 7 7 7 7 7 7 7 7 7
2 4 5 4 4 5 6 5 5 6 5 4 4 4 6 5 4 4 4 5 6 5 5 5 5 7 7 6 6 6 6 4 5 4 4 3 5 9 10 7 5 7 12 9 8 8 10 9 8 7 9 9 8 11 12 9 8 8 7 7 7 8 8 8 8 7 7 7 7 7 7 7 7 7 7 7 7 7 7 7 7 8 8 8 8 8 7
1 1 4 5 4 5 4 4 4 4 5 4 4 6 6 5 5 6 5 6 5 6 7 6 6 6 6 6 7 6 6 6 6 5 6 4 3 3 1 4 5 9 14 9 8 8 9 9 9 11 13 13 14 14 10 9 9 8 7 7 8 8 8 8 7 7 7 7 7 8 8 8 8 8 8 8 8 8 7 7 7 7 8 8 8 8 8
3 3 3 5 6 5 3 5 7 7 6 5 3 4 6 5 5 5 6 6 6 6 5 6 7 7 6 7 7 8 8 8 7 7 8 6 7 8 4 6 7 7 10 11 8 8 8 9 11 14 12 13 14 14 10 9 9 9 7 7 7 7 7 8 8 7 8 7 8 8 8 8 8 8 8 9 9 9 9 8 9 8 8 8 8 8 8
3 2 2 5 4 5 6 6 4 4 6 5 3 1 4 6 5 5 4 5 7 8 8 8 8 8 8 7 3 3 4 5 6 6 7 6 5 1 5 7 6 7 11 12 8 8 8 12 14 13 14 13 11 10 7 7 7 7 7 7 7 7 7 7 7 7 7 8 8 8 8 7 7 8 8 8 9 9 9 10 9 8 7 8 8 9 9
4 4 3 3 2 0 1 4 6 6 5 5 4 4 3 4 7 7 4 5 7 6 6 7 7 7 7 8 8 7 5 5 4 5 5 4 4 2 7 9 8 10 11 9 8 8 8 10 12 14 14 13 11 7 6 6 6 6 7 7 7 7 7 7 8 8 7 7 8 9 9 10 9 8 8 8 8 8 8 9 9 9 8 8 8 9 8
4 3 2 3 4 4 5 6 7 7 6 8 7 6 5 4 5 5 5 4 4 6 7 5 5 5 6 6 7 8 9 9 8 7 6 6 5 5 6 7 8 10 12 11 12 10 12 12 13 14 15 13 9 7 6 6 6 6 6 7 7 7 7 7 7 7 8 8 8 7 7 7 7 8 8 8 9 8 8 8 8 8 8 8 8 8 8
5 5 4 3 4 4 5 7 5 5 6 5 5 6 4 4 3 4 3 3 4 5 6 6 7 6 7 8 8 7 7 8 9 9 8 8 7 7 7 8 12 14 11 9 10 8 11 13 13 13 14 11 8 7 6 6 7 7 7 8 8 8 8 8 8 8 8 8 8 8 8 8 7 7 8 8 8 8 8 8 8 8 8 8 8 8 8
4 4 4 5 5 4 4 3 4 5 5 4 6 6 4 3 3 3 4 6 6 7 6 6 6 6 7 6 7 7 7 8 8 3 3 7 8 7 6 8 9 12 13 10 10 9 10 15 14 13 11 8 8 8 7 7 7 8 8 9 8 8 9 10 9 11 10 9 9 8 8 7 7 8 8 8 8 8 8 8 8 9 12 9 7 7 7
2 3 5 5 6 7 5 5 5 3 3 6 7 6 6 7 6 7 6 6 5 4 4 4 6 7 6 7 7 7 8 8 8 7 6 6 8 9 9 7 8 9 10 11 10 9 8 8 9 10 10 9 9 9 8 8 8 8 8 8 8 8 8 9 8 8 8 8 8 8 8 8 8 8 7 8 8 8 8 8 8 7 7 8 8 8 7
7 6 6 5 4 3 2 2 2 1 1 4 7 6 7 7 7 6 3 4 5 7 7 5 5 4 6 8 8 8 8 9 8 7 7 7 8 8 9 9 7 8 8 8 8 8 8 9 10 11 11 10 9 9 10 12 10 9 9 9 8 9 10 10 9 9 8 9 8 8 9 8 8 8 8 8 8 8 8 8 8 8 8 8 7 7 7
Wind_Direction
180 205 242 215 134 145 163 172 185 216 179 149 138 211 181 121 170 204 226 181 153 183 175 171 173 170 180 176 175 174 163 150 145 148 156 164 168 167 170 174 172 168 169 169 166 163 159 157 160 159 156 156 149 149 151 148 145 150 149 142 137 135 135 135 136 133 130 128 123 123 126 127 125 124 123 121 117 114 108 105 105 106 106 103 97 86 70
23 7 0 319 187 149 137 193 207 200 143 193 163 194 164 160 207 206 163 183 174 176 178 176 177 179 179 173 147 129 144 159 160 161 165 168 169 173 176 176 175 173 170 167 167 163 160 161 162 161 160 161 159 156 158 155 153 152 148 147 144 143 140 140 139 136 132 127 127 127 129 130 130 125 122 118 115 112 108 106 107 107 104 100 96 93 84
344 324 348 170 218 174 181 237 233 214 171 142 204 141 170 100 60 10 153 139 214 284 196 176 159 122 88 113 154 167 161 157 163 165 170 171 173 176 176 173 173 172 170 169 167 168 166 165 167 166 166 161 157 157 158 157 157 155 149 147 144 144 142 143 141 138 133 134 135 135 136 131 127 122 121 121 119 117 115 113 109 107 101 96 90 85 89
332 321 12 1 59 199 191 217 240 240 189 217 166 175 219 126 186 85 60 135 208 269 105 113 130 137 149 161 166 163 168 167 164 168 172 173 174 174 176 176 172 171 172 173 173 172 170 170 168 166 162 159 158 161 159 160 157 155 149 148 148 146 145 145 143 141 138 140 140 141 137 135 129 123 124 125 125 125 121 112 110 107 102 102 100 96 89
273 267 1 48 40 49 312 263 236 229 194 160 157 268 207 182 147 118 147 219 209 163 144 135 156 164 169 163 169 172 167 169 172 173 174 176 176 177 174 174 176 175 176 176 176 174 171 171 171 167 160 158 165 164 162 157 153 154 151 149 148 148 151 150 152 149 146 147 145 144 143 138 132 126 126 129 132 131 125 124 120 115 121 114 109 107 95
251 304 308 66 86 186 233 236 193 161 182 196 173 196 185 183 150 186 183 191 153 141 146 152 167 171 178 180 184 170 168 173 180 178 176 176 175 173 173 176 176 176 172 174 177 176 172 170 167 160 166 167 163 157 152 149 151 151 151 153 151 153 154 155 153 150 150 148 148 147 142 138 134 129 130 136 140 134 128 126 125 126 130 127 124 101 98
290 325 7 57 156 224 244 282 268 207 209 177 165 110 347 218 324 87 86 121 150 178 165 166 172 181 188 176 161 183 180 168 169 174 177 174 171 172 173 175 178 177 173 170 171 174 172 165 154 150 151 142 139 146 149 151 155 155 157 153 155 156 157 154 152 152 152 150 147 145 143 139 135 133 132 133 134 139 137 138 137 145 148 138 131 114 106
53 47 47 114 232 237 288 288 270 339 72 203 110 47 11 60 237 158 144 167 172 180 178 174 173 179 177 165 179 173 176 178 172 170 175 175 172 175 180 178 176 172 173 172 171 169 163 159 156 156 153 150 152 155 154 154 157 159 154 155 154 155 157 158 157 157 154 151 148 147 145 141 137 138 137 139 138 142 136 137 136 131 138 136 135 133 129
181 211 136 191 288 326 330 25 65 103 190 164 163 167 274 288 11 246 165 176 173 177 186 178 143 101 109 140 196 231 189 184 182 173 175 174 181 181 177 174 173 172 167 166 167 161 160 161 158 160 153 152 152 152 155 157 157 156 156 158 160 161 161 161 161 159 157 154 151 151 148 144 143 145 143 140 136 132 129 138 140 150 161 162 158 149 146
111 127 46 15 42 225 275 247 272 312 205 148 169 101 318 305 329 253 125 177 177 175 157 126 125 122 117 157 226 204 200 196 186 191 178 177 173 167 165 163 158 160 164 163 163 161 159 163 162 157 156 154 154 156 157 158 159 160 162 164 164 164 163 163 160 159 159 155 153 153 151 150 150 148 144 139 142 138 134 140 146 161 161 158 169 164 154
32 38 110 187 152 242 214 250 265 270 279 152 116 70 144 268 238 302 153 148 200 191 155 151 131 136 163 200 208 201 184 182 183 174 174 170 167 165 165 164 163 164 167 165 162 160 160 164 163 158 157 155 156 159 159 161 161 162 166 165 168 165 161 159 159 158 157 154 154 155 153 154 152 152 156 156 152 136 136 136 147 154 157 164 179 180 169
127 143 84 277 193 215 267 236 263 252 179 137 63 151 265 260 284 261 97 140 167 187 184 157 156 156 182 199 225 190 182 183 177 171 165 164 165 168 163 165 164 162 159 155 163 166 167 165 156 157 157 158 160 159 161 160 163 168 173 170 164 158 158 158 156 155 156 155 156 156 156 154 155 157 157 147 149 144 146 147 153 164 165 169 175 186 172
131 84 279 331 313 281 264 265 254 231 182 72 100 187 234 251 262 271 182 198 190 149 156 182 167 200 183 195 202 166 157 137 155 172 171 167 164 161 163 164 157 159 164 166 167 166 163 157 157 158 158 158 160 159 158 162 173 175 166 159 158 157 154 154 155 156 157 157 156 158 158 158 158 156 155 154 152 149 156 158 157 170 177 181 178 177 169
160 187 144 230 239 242 234 272 188 241 95 180 197 231 201 189 267 297 254 355 195 155 162 187 189 201 216 52 89 138 158 171 164 157 153 148 153 158 158 156 157 159 161 163 160 159 161 158 159 160 160 159 160 160 163 175 175 159 155 153 151 150 152 154 155 154 155 155 154 154 155 152 153 157 163 155 158 159 158 162 172 181 187 179 179 182 172
64 72 70 23 115 285 132 358 350 47 113 228 206 214 245 196 240 85 17 305 291 158 183 194 198 179 143 146 153 155 151 147 155 158 160 162 161 159 155 160 162 156 160 164 165 159 160 161 161 162 161 160 161 164 173 173 156 152 150 150 149 149 151 153 154 154 154 154 154 153 157 159 157 163 165 160 163 164 166 175 180 188 190 185 175 182 184
166 143 145 181 218 248 294 114 154 256 190 192 179 148 22 342 109 63 23 344 293 228 175 179 198 174 150 142 146 147 156 160 153 154 155 154 152 155 162 162 160 158 158 161 161 157 159 163 164 164 163 161 164 169 173 153 146 145 147 149 149 150 152 153 152 155 156 156 155 156 159 160 160 158 163 165 164 173 177 178 184 192 201 184 173 172 182
128 204 206 246 244 233 304 88 148 191 358 44 112 94 94 44 359 21 75 354 341 56 188 155 150 147 165 157 156 153 162 157 158 161 165 161 160 160 162 164 159 159 159 160 159 158 161 162 164 166 166 161 163 168 158 147 150 151 151 151 151 152 154 155 156 157 156 157 157 159 164 161 160 163 167 165 168 181 176 185 186 192 195 179 177 181 170
243 101 139 183 359 15 30 25 74 96 57 45 70 73 59 10 324 285 144 143 88 68 79 116 61 142 155 141 150 149 152 151 147 138 139 146 149 152 152 154 159 157 154 156 158 158 161 163 163 166 166 162 165 166 151 153 152 153 152 152 153 154 155 156 158 157 156 159 160 164 165 167 164 165 168 171 173 180 180 188 192 190 189 178 180 176 179
75 131 313 76 120 18 353 43 33 51 74 73 90 73 72 58 34 56 30 128 88 110 101 95 110 96 112 117 121 128 126 131 142 151 153 156 158 160 162 160 154 154 156 160 161 159 161 165 164 165 164 167 161 146 154 154 154 152 152 151 152 153 157 158 158 158 158 163 165 168 167 166 163 166 169 173 173 177 185 191 196 197 180 171 171 175 179
101 211 231 246 263 93 309 280 86 74 49 38 41 99 130 104 81 103 160 133 95 97 88 126 119 121 127 125 126 134 146 152 153 156 158 154 155 159 154 155 157 154 160 163 163 161 161 163 162 162 161 159 152 151 152 153 151 151 152 156 156 159 158 157 158 160 161 164 165 169 172 169 168 171 181 176 175 181 191 194 194 212 190 184 174 173 170
309 331 335 246 104 34 17 25 18 204 139 86 26 18 37 41 45 27 21 3 152 127 138 127 119 120 143 150 147 147 149 152 151 155 156 158 155 152 155 159 158 162 164 164 163 161 160 159 158 158 159 155 154 154 155 154 154 154 156 155 154 155 155 155 159 162 161 165 169 169 172 175 179 176 178 179 179 207 232 197 190 188 196 184 179 170 158
149 177 203 176 97 152 15 20 20 124 226 90 55 28 24 30 53 52 61 32 20 125 144 139 133 134 138 149 147 148 154 156 151 148 150 152 152 155 157 156 160 159 161 159 160 159 156 155 156 157 157 156 158 157 154 156 155 153 153 153 153 156 158 159 159 160 162 165 166 169 171 174 162 98 18 60 162 183 199 221 213 191 156 173 172 158 159
212 244 241 200 138 141 207 216 309 323 345 74 61 24 2 14 104 120 96 69 57 92 125 151 136 141 144 155 149 142 147 153 156 154 151 151 153 156 158 156 159 160 158 153 151 151 154 156 158 157 158 157 157 157 156 159 158 154 154 154 157 157 160 164 164 163 164 166 171 169 168 162 160 147 124 31 27 12 325 160 162 180 163 148 152 161 153
226 212 197 161 125 154 171 204 124 77 87 88 78 43 7 353 30 106 92 160 140 109 86 52 165 146 142 148 150 148 148 148 150 156 159 158 160 160 163 163 161 159 154 154 157 160 158 158 156 156 156 159 160 160 159 160 158 156 158 157 161 164 164 160 159 162 167 169 165 163 167 163 152 152 148 112 18 7 24 49 97 127 138 149 165 169 165
175 210 173 184 152 160 160 136 98 77 79 100 89 58 36 23 353 65 105 85 178 140 122 112 111 151 142 154 152 152 158 163 161 159 159 160 163 162 165 163 163 162 164 163 161 158 158 157 155 158 158 162 160 160 161 160 159 159 162 161 160 160 159 159 163 167 169 169 167 169 168 160 158 159 150 155 150 170 350 23 75 110 115 140 168 175 172
129 127 100 87 81 68 161 73 34 31 42 76 82 36 14 36 13 36 59 95 65 146 133 127 106 127 146 149 164 160 156 161 162 155 155 161 163 165 166 169 168 166 161 160 160 160 161 161 160 160 160 163 163 161 158 158 161 160 162 162 160 160 162 164 166 171 174 173 173 176 170 159 162 165 169 163 164 158 156 167 340 339 242 196 192 194 201
87 118 93 59 46 13 14 134 187 244 64 67 90 51 350 359 33 49 3 72 64 56 61 144 138 120 118 150 154 161 156 147 150 162 164 165 171 177 175 167 163 161 162 160 161 164 161 158 159 162 163 163 160 156 157 157 157 156 157 159 160 161 161 164 171 174 179 176 173 171 164 169 168 182 181 175 163 161 167 170 183 188 210 228 223 200 205
83 65 120 142 192 183 179 189 160 105 74 74 53 18 319 12 22 18 4 24 46 29 32 34 66 114 97 115 135 121 128 149 164 168 169 179 177 166 163 163 158 156 159 160 160 159 159 161 162 162 159 158 156 155 155 156 154 154 156 159 159 158 165 168 171 175 179 176 170 171 174 176 177 189 183 169 170 183 184 180 177 192 222 225 222 233 207
91 78 80 125 159 183 123 121 72 61 42 15 32 31 20 25 357 15 3 24 96 71 46 28 45 53 128 143 145 150 162 163 166 173 175 167 157 154 146 145 150 150 154 155 156 158 159 158 158 157 159 159 157 156 155 153 152 151 154 158 154 156 161 173 176 174 171 171 166 174 172 174 182 190 187 184 188 182 180 181 191 201 201 220 239 296 294
130 119 108 121 126 112 102 104 114 118 67 12 44 11 2 61 46 347 13 12 97 99 127 93 63 46 53 124 158 161 165 172 173 164 156 156 149 140 135 127 118 119 127 142 156 162 163 165 163 162 163 163 159 155 153 151 151 151 157 158 159 162 164 175 175 172 168 178 176 166 175 184 191 189 187 191 191 185 182 192 196 196 213 215 194 206 219
141 127 128 134 116 99 131 178 172 160 66 56 89 38 356 44 109 357 44 109 172 107 95 99 102 83 58 67 63 45 46 109 142 148 149 149 147 147 147 147 148 158 166 171 170 170 168 166 167 165 161 155 152 151 150 151 150 149 151 160 164 167 169 171 171 175 179 183 182 175 183 189 193 189 192 191 191 189 192 195 196 208 218 210 199 210 226
113 121 109 130 129 129 169 145 122 132 156 147 56 28 324 318 321 341 153 169 218 143 129 102 99 102 105 96 87 93 99 93 75 93 122 141 151 156 161 167 166 161 161 163 163 165 162 161 164 161 154 152 151 151 149 148 147 151 159 164 161 166 172 171 172 173 168 177 183 187 185 186 195 193 190 194 193 193 194 188 202 209 215 213 219 223 230
126 116 40 244 274 77 164 186 154 173 168 140 179 199 339 162 212 157 168 151 139 121 111 108 104 102 97 95 95 100 100 100 107 121 139 149 154 153 150 143 157 170 171 173 170 166 163 164 160 152 153 152 151 150 149 149 151 153 157 162 166 172 171 180 182 174 177 176 183 193 189 189 185 187 197 199 199 196 193 197 202 206 214 216 221 231 224
158 171 191 193 173 174 180 220 225 168 185 215 178 172 43 53 114 118 132 138 135 121 124 128 126 117 103 96 99 104 115 115 121 142 156 149 142 116 100 105 110 100 71 51 115 138 142 141 144 151 153 152 149 148 149 148 148 152 157 163 171 170 174 182 182 183 186 193 197 194 191 189 189 191 189 195 197 195 196 201 202 205 211 219 226 229 235
147 174 159 174 180 174 172 158 170 166 155 138 32 303 27 117 134 136 140 142 140 131 125 111 105 100 106 109 110 106 109 125 137 140 141 132 120 121 125 123 114 101 102 101 125 140 147 148 149 148 151 151 151 152 153 149 149 158 167 171 171 176 177 177 181 189 189 197 192 192 193 197 209 206 196 184 188 191 195 200 202 202 206 218 231 234 240
120 108 85 70 99 131 132 141 155 165 163 174 185 147 107 128 120 128 124 129 123 123 122 118 114 107 106 116 125 133 127 127 123 117 111 115 115 120 121 128 134 134 135 123 111 127 142 151 152 150 150 154 151 152 154 154 161 165 177 178 178 170 177 180 187 190 195 189 190 196 195 200 201 200 198 195 187 180 185 196 204 207 207 213 216 215 229
104 103 103 116 113 115 126 144 149 143 155 161 121 119 112 107 109 105 107 111 116 120 123 119 113 116 126 117 110 103 122 139 142 136 129 121 116 116 120 119 132 145 147 149 161 152 153 154 156 150 147 148 151 153 155 156 165 170 175 186 182 174 174 180 188 189 195 192 193 194 196 192 202 211 208 198 193 193 189 196 205 208 214 217 216 216 232
72 107 123 123 130 109 98 120 133 115 102 77 81 120 134 129 127 127 124 126 125 127 121 118 120 118 107 92 92 114 124 125 128 133 133 136 138 132 135 146 151 150 169 174 158 155 156 153 155 153 150 152 159 161 166 167 171 174 180 190 188 180 178 179 182 194 192 192 190 186 187 191 198 211 218 219 215 205 203 207 207 209 217 223 226 225 228
62 73 94 105 88 90 86 65 65 79 103 109 108 101 104 117 115 113 120 125 129 124 117 114 115 113 124 128 127 122 140 156 149 139 146 148 153 160 174 180 179 175 147 132 149 151 141 151 164 156 156 161 164 164 167 180 186 183 183 183 187 187 182 170 175 204 207 197 182 187 186 189 194 199 209 214 219 223 219 217 217 218 220 227 225 230 228
116 139 147 111 106 104 97 97 99 100 103 120 126 135 144 116 119 117 117 114 129 130 127 130 130 133 145 144 149 164 175 173 166 154 150 146 134 120 112 115 120 113 126 147 152 144 151 161 162 163 161 166 165 166 169 183 190 194 181 179 184 183 182 181 187 198 205 194 196 195 197 194 196 200 205 209 215 220 227 227 227 225 227 232 229 230 226
170 159 155 125 134 127 128 119 116 125 129 120 120 135 142 131 130 124 142 149 158 139 139 140 135 149 164 171 172 170 168 173 170 168 152 136 139 154 158 192 179 133 135 151 156 136 154 167 171 166 169 167 167 175 174 185 190 204 195 188 184 185 185 188 188 195 196 197 199 198 203 201 201 205 210 210 217 219 220 223 224 224 220 222 226 224 223
23 120 140 150 133 135 138 140 118 100 111 135 135 138 144 145 142 152 161 142 130 133 136 150 151 157 159 144 134 139 158 173 172 171 170 163 169 162 169 208 188 157 158 153 147 144 158 170 176 172 163 165 167 187 186 181 197 204 197 188 189 187 186 186 191 198 198 197 197 202 205 204 201 208 207 209 214 216 218 219 224 227 228 226 229 230 228
125 143 144 148 148 153 149 153 148 148 141 151 149 151 146 139 134 136 128 124 132 134 124 112 110 117 128 138 144 156 171 171 172 176 184 208 183 179 181 188 174 168 156 160 157 159 170 177 179 187 184 177 177 193 190 190 198 199 194 186 185 187 188 187 191 196 192 193 201 208 209 207 209 213 216 216 220 221 217 216 220 226 227 229 231 236 237
119 129 133 136 163 177 155 136 134 131 134 179 184 142 132 144 154 149 148 132 132 138 137 140 143 146 151 152 150 157 171 175 176 175 162 181 226 263 165 147 171 166 166 163 166 172 179 183 184 191 192 187 185 189 191 199 194 193 188 185 186 187 185 185 192 193 196 199 201 208 211 211 211 214 214 218 224 229 227 228 230 230 232 231 232 233 237
142 122 170 166 166 147 141 145 155 170 177 175 174 121 127 148 163 164 155 146 145 154 151 155 160 163 167 168 174 181 181 181 176 162 163 175 197 229 195 165 155 157 179 171 173 177 186 188 191 187 191 193 188 185 193 195 193 194 193 193 191 190 187 185 187 195 202 205 211 213 213 211 213 213 214 218 218 220 224 224 228 227 226 231 231 232 235
169 124 148 169 166 158 188 180 181 136 129 125 131 148 152 154 171 180 171 150 156 166 175 173 172 180 174 169 153 149 160 174 187 194 199 195 190 185 162 167 168 166 178 178 177 184 193 193 189 188 191 194 184 181 190 191 191 195 201 203 202 198 197 197 192 193 197 203 208 213 217 221 218 218 216 216 217 218 224 224 228 232 228 231 231 231 232
151 119 129 147 225 125 95 114 130 126 120 120 139 185 221 170 169 185 191 169 169 174 177 177 182 181 171 161 156 152 162 183 221 223 208 215 222 188 160 173 168 167 169 183 188 193 193 193 193 192 194 192 178 183 185 185 190 198 202 210 206 207 207 209 207 207 199 198 199 205 210 208 210 219 227 234 232 227 225 223 226 231 232 232 238 240 240
149 144 172 142 119 113 109 114 127 140 155 168 180 187 200 177 156 175 190 160 171 171 173 188 184 173 168 175 178 176 171 166 183 229 213 200 191 177 171 181 182 176 180 192 198 205 200 195 195 197 200 197 186 187 183 186 188 197 203 209 211 211 212 213 213 213 211 210 202 197 197 200 206 207 209 212 223 225 227 223 228 234 238 233 237 236 236
166 166 177 144 120 119 116 126 142 165 192 188 177 191 202 185 164 134 139 169 159 179 184 186 184 181 185 187 180 182 185 181 174 203 205 187 186 191 195 187 182 175 181 192 200 207 205 204 201 201 204 202 198 193 190 190 196 200 206 210 213 214 214 215 216 211 209 208 206 207 209 208 209 201 203 204 206 209 208 212 217 215 220 221 227 231 230
158 129 134 140 144 145 150 143 163 192 190 189 202 200 186 146 145 231 179 163 171 165 178 188 193 189 188 187 191 190 184 195 217 227 167 182 190 189 184 183 186 185 187 193 202 206 204 203 205 205 203 203 208 210 211 208 206 204 210 212 214 217 217 216 219 217 212 213 212 211 210 213 218 221 219 217 217 215 212 213 214 220 221 219 222 228 228
120 143 178 181 174 181 175 171 187 194 160 180 194 181 168 168 192 209 208 187 176 188 195 184 187 193 192 192 189 188 195 202 209 203 188 191 187 198 199 182 180 189 194 197 200 204 193 193 203 207 207 208 211 214 217 217 218 216 212 214 213 214 217 217 216 217 217 216 217 218 220 223 222 223 221 222 223 226 228 231 236 240 237 233 231 233 237
93 93 81 63 31 356 350 349 352 341 242 157 167 176 182 186 188 212 246 247 186 178 195 210 243 239 192 183 186 195 199 202 200 202 199 191 191 196 203 197 182 181 185 196 203 201 194 193 197 200 201 204 210 215 219 220 219 220 218 216 214 212 210 209 207 210 215 214 213 220 223 225 226 230 234 233 231 231 234 234 236 238 239 239 237 236 240